Weather History for KCKP - September, 2013

Change the Weather History Date:

Sunday, September 1, 2013

  Actual Average (WUND) Record (WUND)
Temperature  
Mean Temperature 72 °F -  
Max Temperature 82 °F - - (-1)
Min Temperature 62 °F - - (-1)
Cooling Degree Days 7    
Growing Degree Days 22 (Base 50)    
Moisture  
Dew Point 62 °F    
Average Humidity 72    
Maximum Humidity 96    
Minimum Humidity 43    
Precipitation  
Precipitation 0.15 in - - ()
Sea Level Pressure  
Sea Level Pressure 29.94 in    
Wind  
Wind Speed 8 mph (NNW)    
Max Wind Speed 22 mph    
Max Gust Speed 39 mph    
Visibility 10 miles    
Events Rain , Thunderstorm    
Averages and records for this station are not official NWS values.
T = Trace of Precipitation, MM = Missing Value Source: NWS Daily Summary

Daily Weather History Graph

Daily Weather History Graph

Search for Another Location

Airport or City:

Trip Planner

Search our weather history database for the weather conditions in past years. The results will help you decide how hot, cold, wet, or windy it might be!

Date:

Astronomy

Sep. 01, 2013 Rise Set
Actual Time 6:47 AM CDT 7:56 PM CDT
Civil Twilight 6:18 AM CDT 8:25 PM CDT
Nautical Twilight 5:43 AM CDT 8:59 PM CDT
Astronomical Twilight 5:06 AM CDT 9:36 PM CDT
Moon 3:06 AM CDT (9/1) 5:36 PM CDT (9/1)
Length of Visible Light 14h 06m
Length of Day
13h 08m
Waning Crescent, 13% of the Moon is Illuminated
Sep 1
Waning Crescent
Sep 5
New
Sep 12
First Quarter
Sep 19
Full
Sep 26
Last Quarter

Hourly Weather History & Observations

Time (CDT) Temp. Heat Index Dew Point Humidity Pressure Visibility Wind Dir Wind Speed Gust Speed Precip Events Conditions
12:15 AM 75.4 °F - 63.7 °F 67% 29.86 in 10.0 mi North 13.8 mph 39.1 mph N/A Thunderstorm Mostly Cloudy
12:35 AM 72.5 °F - 65.3 °F 78% 29.84 in 10.0 mi NNE 21.9 mph 26.5 mph N/A Thunderstorm Mostly Cloudy
12:55 AM 71.8 °F - 66.6 °F 84% 29.87 in 10.0 mi North 8.1 mph - N/A Rain , Thunderstorm Rain
1:15 AM 71.1 °F - 66.9 °F 87% 29.87 in 7.0 mi NNW 6.9 mph - 0.03 in Rain , Thunderstorm Light Thunderstorms and Rain
1:35 AM 70.5 °F - 67.6 °F 91% 29.90 in 7.0 mi NW 3.5 mph - 0.07 in Rain , Thunderstorm Heavy Thunderstorms and Rain
1:55 AM 70.5 °F - 68.2 °F 92% 29.86 in 5.0 mi Calm Calm - 0.14 in Rain , Thunderstorm Light Thunderstorms and Rain
2:15 AM 69.8 °F - 68.5 °F 96% 29.84 in 10.0 mi SSE 4.6 mph - 0.01 in   Scattered Clouds
2:35 AM 69.4 °F - 68.2 °F 96% 29.81 in 10.0 mi Calm Calm - 0.01 in   Clear
2:55 AM 69.6 °F - 68.4 °F 96% 29.84 in 10.0 mi NW 8.1 mph - 0.01 in   Scattered Clouds
3:15 AM 69.8 °F - 68.5 °F 96% 29.86 in 10.0 mi WSW 9.2 mph - N/A   Scattered Clouds
3:35 AM 69.8 °F - 68.2 °F 95% 29.86 in 10.0 mi Calm Calm - N/A   Scattered Clouds
3:55 AM 69.8 °F - 68.2 °F 95% 29.85 in 10.0 mi North 3.5 mph - N/A   Clear
4:15 AM 69.4 °F - 68.0 °F 95% 29.86 in 10.0 mi Calm Calm - N/A   Clear
4:35 AM 69.4 °F - 68.2 °F 96% 29.86 in 10.0 mi Calm Calm - N/A   Clear
4:55 AM 69.4 °F - 68.0 °F 95% 29.87 in 10.0 mi Calm Calm - N/A   Clear
5:15 AM 69.1 °F - 67.6 °F 95% 29.87 in 10.0 mi Calm Calm - N/A   Clear
5:35 AM 68.9 °F - 67.5 °F 95% 29.87 in 10.0 mi Calm Calm - N/A   Clear
5:55 AM 68.4 °F - 66.7 °F 95% 29.88 in 10.0 mi North 4.6 mph - N/A   Clear
6:15 AM 68.0 °F - 66.2 °F 94% 29.88 in 10.0 mi NNW 6.9 mph - N/A   Clear
6:35 AM 67.5 °F - 65.3 °F 93% 29.89 in 10.0 mi North 5.8 mph - N/A   Clear
6:55 AM 66.7 °F - 64.4 °F 92% 29.90 in 10.0 mi North 3.5 mph - N/A   Clear
7:15 AM 66.2 °F - 63.7 °F 92% 29.91 in 10.0 mi Calm Calm - N/A   Clear
7:35 AM 66.6 °F - 64.4 °F 93% 29.92 in 10.0 mi NNW 3.5 mph - N/A   Clear
7:55 AM 67.1 °F - 63.9 °F 89% 29.94 in 10.0 mi NNW 5.8 mph - N/A   Clear
8:15 AM 68.0 °F - 64.4 °F 88% 29.95 in 10.0 mi NNW 4.6 mph - N/A   Clear
8:35 AM 69.1 °F - 63.0 °F 81% 29.95 in 10.0 mi NNW 4.6 mph - N/A   Clear
8:55 AM 70.7 °F - 61.9 °F 74% 29.96 in 10.0 mi North 3.5 mph - N/A   Clear
9:15 AM 71.8 °F - 62.1 °F 71% 29.96 in 10.0 mi NNW 5.8 mph - N/A   Clear
9:35 AM 72.9 °F - 62.1 °F 69% 29.96 in 10.0 mi NNW 6.9 mph - N/A   Clear
9:55 AM 73.6 °F - 62.1 °F 67% 29.96 in 10.0 mi NNW 6.9 mph - N/A   Clear
10:15 AM 73.9 °F - 61.5 °F 65% 29.96 in 10.0 mi NNW 6.9 mph - N/A   Clear
10:35 AM 74.7 °F - 62.8 °F 66% 29.96 in 10.0 mi NNW 8.1 mph - N/A   Clear
10:55 AM 75.4 °F - 63.1 °F 66% 29.95 in 10.0 mi NW 6.9 mph - N/A   Clear
11:15 AM 77.2 °F - 64.2 °F 64% 29.96 in 10.0 mi NW 6.9 mph - N/A   Clear
11:35 AM 77.9 °F - 61.5 °F 57% 29.96 in 10.0 mi NNW 10.4 mph 19.6 mph N/A   Clear
11:55 AM 78.4 °F - 61.0 °F 55% 29.96 in 10.0 mi NNW 12.7 mph 19.6 mph N/A   Clear
12:15 PM 79.0 °F - 61.0 °F 54% 29.95 in 10.0 mi NNW 11.5 mph 21.9 mph N/A   Clear
12:35 PM 79.5 °F - 60.8 °F 53% 29.95 in 10.0 mi NW 15.0 mph 20.7 mph N/A   Scattered Clouds
12:55 PM 80.2 °F 80.7 °F 58.5 °F 47% 29.95 in 10.0 mi NW 16.1 mph 25.3 mph N/A   Scattered Clouds
1:15 PM 79.7 °F - 57.2 °F 46% 29.94 in 10.0 mi NNW 16.1 mph 23.0 mph N/A   Scattered Clouds
1:35 PM 80.8 °F 81.0 °F 57.6 °F 45% 29.95 in 10.0 mi NNW 17.3 mph 24.2 mph N/A   Scattered Clouds
1:55 PM 80.6 °F 80.6 °F 56.1 °F 43% 29.95 in 10.0 mi NW 11.5 mph 21.9 mph N/A   Scattered Clouds
2:15 PM 79.9 °F - 57.7 °F 47% 29.95 in 10.0 mi NW 10.4 mph 23.0 mph N/A   Scattered Clouds
2:35 PM 81.1 °F 81.5 °F 59.0 °F 47% 29.95 in 10.0 mi NW 11.5 mph 20.7 mph N/A   Mostly Cloudy
2:55 PM 80.6 °F 81.0 °F 58.5 °F 47% 29.94 in 10.0 mi NNW 16.1 mph 21.9 mph N/A   Mostly Cloudy
3:15 PM 81.1 °F 81.4 °F 58.8 °F 46% 29.94 in 10.0 mi NNW 13.8 mph 20.7 mph N/A   Scattered Clouds
3:35 PM 81.3 °F 81.4 °F 57.9 °F 45% 29.94 in 10.0 mi NNW 11.5 mph 24.2 mph N/A   Scattered Clouds
3:55 PM 81.9 °F 81.7 °F 57.2 °F 43% 29.95 in 10.0 mi North 12.7 mph 20.7 mph N/A   Mostly Cloudy
4:15 PM 80.8 °F 81.0 °F 57.6 °F 45% 29.94 in 10.0 mi NNW 15.0 mph 19.6 mph N/A   Scattered Clouds
4:35 PM 81.3 °F 81.6 °F 59.0 °F 46% 29.94 in 10.0 mi NNW 10.4 mph 17.3 mph N/A   Scattered Clouds
4:55 PM 78.8 °F - 58.3 °F 49% 29.95 in 10.0 mi NNW 9.2 mph 17.3 mph N/A   Scattered Clouds
5:15 PM 81.5 °F 81.6 °F 58.3 °F 45% 29.95 in 10.0 mi NNW 13.8 mph 17.3 mph N/A   Scattered Clouds
5:35 PM 80.8 °F 81.1 °F 58.3 °F 46% 29.95 in 10.0 mi NNW 13.8 mph 18.4 mph N/A   Scattered Clouds
5:55 PM 80.2 °F 80.9 °F 59.4 °F 49% 29.96 in 10.0 mi NNW 9.2 mph - N/A   Scattered Clouds
6:15 PM 79.9 °F - 59.7 °F 50% 29.96 in 10.0 mi NW 9.2 mph 16.1 mph N/A   Scattered Clouds
6:35 PM 79.3 °F - 59.5 °F 51% 29.96 in 10.0 mi NNW 9.2 mph - N/A   Scattered Clouds
6:55 PM 78.8 °F - 59.9 °F 52% 29.96 in 10.0 mi North 8.1 mph - N/A   Scattered Clouds
7:15 PM 76.8 °F - 61.0 °F 58% 29.96 in 10.0 mi North 9.2 mph - N/A   Scattered Clouds
7:35 PM 75.4 °F - 62.1 °F 63% 29.96 in 10.0 mi North 11.5 mph - N/A   Clear
7:55 PM 73.6 °F - 61.7 °F 66% 29.97 in 10.0 mi North 6.9 mph - N/A   Clear
8:15 PM 72.1 °F - 61.9 °F 70% 29.98 in 10.0 mi NNE 8.1 mph - N/A   Clear
8:35 PM 70.9 °F - 61.7 °F 73% 29.98 in 10.0 mi NNE 8.1 mph - N/A   Clear
8:55 PM 70.0 °F - 60.8 °F 73% 29.99 in 10.0 mi North 5.8 mph - N/A   Clear
9:15 PM 68.9 °F - 60.8 °F 75% 30.00 in 10.0 mi NNE 6.9 mph - N/A   Clear
9:35 PM 67.6 °F - 61.0 °F 79% 30.00 in 10.0 mi NNE 3.5 mph - N/A   Clear
9:55 PM 66.4 °F - 61.0 °F 83% 30.01 in 10.0 mi NNE 5.8 mph - N/A   Clear
10:15 PM 65.3 °F - 60.8 °F 85% 30.01 in 10.0 mi NNE 3.5 mph - N/A   Clear
10:35 PM 65.3 °F - 60.8 °F 85% 30.02 in 10.0 mi NNE 6.9 mph - N/A   Clear
10:55 PM 64.6 °F - 60.3 °F 86% 30.03 in 10.0 mi NNE 5.8 mph - N/A   Clear
11:15 PM 64.0 °F - 59.9 °F 86% 30.03 in 10.0 mi North 5.8 mph - N/A   Clear
11:35 PM 63.3 °F - 59.9 °F 89% 30.03 in 10.0 mi Calm Calm - N/A   Clear
11:55 PM 62.6 °F - 59.4 °F 89% 30.03 in 10.0 mi Calm Calm - N/A   Clear